FENGYUN 1C DEB, 31314

Orbit data source: Space-Track

FENGYUN 1C DEB, 31314 is space debris in SSO originally from a launch on Mon, 10 May 1999 UTC launched from the Taiyaun Space Center, China (TSC). Fengyun 1C debris stems from the Chinese weather satellite Fengyun-1C, which was intentionally destroyed by a Chinese anti-satellite missile in 2007. This event dramatically increased the amount of space debris, with thousands of trackable fragments posing hazards to satellites and human spaceflight. The Fengyun 1C debris cloud has become a focal point in discussions about space sustainability and the need for international regulations to prevent the creation of new debris.

Loading next visibility...
Identifier
31314, 1999-025BPS
Orbit
SSO
Country
Flag of CNCN / PRC
Related business
Manufacturer
Unknown
Mission
Spacecraft
Bus & Motor
Unknown
Mass
Unknown
Launch date (UTC)
1999-05-10 (27 years ago)
Launch vehicle
Unknown
Launch site
Taiyaun Space Center, China (TSC)
Object type
Payload
Rocket body
Debris
Shape & HBR
Unknown shape, 0.1 m
Radar Cross Section
Small (<0.1 m²)

Expand to show TLE details & history
Last TLE update: 3 days ago

TLE from 3 days ago
0 FENGYUN 1C DEB
1 31314U 99025BPS 26166.73699128  .00000018  00000-0  37101-4 0  9998
2 31314  98.8319 160.8195 0077893 197.6869 162.1585 14.05100025634124
Epoch: 2026-06-15T17:41Z
TLE epoch observation values (Epoch: 2026-06-15T17:41:16.046Z)
Latitude
0.00005°
Longitude
-8.51645°
Altitude
932.918 km
Speed
7.358 km/s
True Right ascension
10h 43m 16s
True Declination
0° 00' 00"
Sunlit
Object was in daylight at epoch
Visualization orbit readout
Latitude
Unknown
Longitude
Unknown
Altitude
Unknown
Speed
Unknown
Apparent Right ascension
Unknown
Apparent Declination
Unknown
Sunlit
N/A
Visualization observer readout
Local Sidereal Time
13:13:47
Azimuth
Unknown
Elevation
Unknown
Doppler factor
Unknown
Orbital elements
Apogee altitude
929.856 km
Perigee altitude
816.888 km
Semi-major axis
7,251.509 km
Eccentricity
0.00779
Inclination
98.8319°
RAAN
160.8195°
Arg. of periapsis
197.6869°
True anomaly
162.42946°
Mean anomaly
162.1585°
Eccentric anomaly
162.29423°
Mean motion
3.5148 °/min
Orbital period
102.42 mins
BSTAR
0.000037101
Loading maneuver chart data...
Computing Atmospheric mass density...

Documentation

Showing up to 5 results
|